Weather in Mrakovo

Russia / Republic of Bashkortostan     53°47′17″N   56°11′29″E
temp.,
°C
wind,
m/s
gust,
m/s
humid.,
%
clouds,
%
prec.,
mm/h
press.,
hPa
HPBL,
m
28 february, sun
sun2823:00−8se4109398 0.5 1003286
02:00−7se41095100 0.9 1001281
05:00−6ese3896100 1.8 1000248
08:00−6se3796100 1.4 1000248
11:00−4se3695100 2.0 1000259
14:00−2se3497100 0.4 1000330
17:00−1ese129898 0.9 1002172
20:00−5nnw589699 1.1 1005262
1 march, mon
mon123:00−10nw249698 1.4 1007131
02:00−12w229694 0.3 101029
05:00−13w129693 0.6 101225
08:00−14wnw129698 0.2 101425
11:00−12wnw229198 0.3 1015316
14:00−10wnw2389100 0.3 1016425
17:00−11nw3391100 0.5 1017365
20:00−15nw229698 0.2 101835
2 march, tue
tue223:00−17wnw119795 0.3 101920
02:00−20wsw1110098 0.1 101920
05:00−20ssw229999 0.1 101924
08:00−21s4798100 0.0 1018145
11:00−18s6109297 0.1 1016364
14:00−14ssw7129097 0.0 1013491
17:00−13s7148998 0.1 1011536
20:00−14s71494100 0.9 1009633
3 march, wed
wed323:00−12s61593100 1.6 1007579
02:00−9s61692100 0.4 1004579
05:00−6s51492100 0.6 1001537
08:00−3ssw61196100 0.8 999627
11:00−2ssw6996100 2.0 999602
14:00−1sw579699 0.6 999603
17:00−1wsw4796100 1.7 999547
20:00−6wnw3794100 0.4 1001187
4 march, thu
thu423:00−6nw2696100 0.6 1003195
02:00−8w2297100 0.4 100424
05:00−8w2396100 0.8 100580
08:00−8wnw2696100 0.9 1007200
11:00−7nw4693100 1.5 1009398
14:00−7wnw468995 0.1 1010632
17:00−6wsw468797 0.1 1011672
20:00−11ssw499252 0.0 1012181